Simultaneous Nadir Overpasses (SNOs) Predictions

Prediction of SNOs between NOAA-20 and METOP-B Satellite Orbit:

Table of predicted SNOs for the next 14.0 days since TLE Epoch: 7/19/2019
Index Date (NOAA-20) Time (NOAA-20) Lat,Lon (NOAA-20) SZA (NOAA-20 ) Date (METOP-B) Time (METOP-B) Lat,Lon (METOP-B) SZA (METOP-B ) Distance(km) Time Diff (sec)
1 08/01/2019 22:43:39 73.48,-170.70 55.86 08/01/2019 22:44:46 73.40,-168.09 55.62 83.13 67
2 08/01/2019 23:34:21 -73.38, -3.15 124.24 08/01/2019 23:35:29 -73.33, -0.92 124.43 71.42 68
3 08/02/2019 00:25:03 73.19, 164.58 55.55 08/02/2019 00:26:13 73.13, 165.96 55.40 44.90 70
4 08/02/2019 01:15:45 -73.09, -27.88 124.55 08/02/2019 01:16:57 -73.01, -26.97 124.70 30.90 72
5 08/02/2019 02:06:27 72.89, 139.84 55.24 08/02/2019 02:07:40 72.85, 140.03 55.17 7.68 73
6 08/02/2019 02:57:10 -72.84, -52.73 124.81 08/02/2019 02:58:22 -72.84, -52.68 124.84 2.13 72
7 08/02/2019 03:47:55 72.80, 114.67 55.16 08/02/2019 03:49:02 72.83, 114.64 55.17 3.27 67
8 08/02/2019 04:38:39 -72.80, -78.02 124.84 08/02/2019 04:39:44 -72.81, -78.06 124.84 1.98 65
9 08/02/2019 05:29:25 72.81, 89.28 55.18 08/02/2019 05:30:24 72.80, 89.25 55.17 0.88 59
10 08/02/2019 06:20:09 -72.81,-103.41 124.81 08/02/2019 06:21:06 -72.79,-103.45 124.84 2.60 57
11 08/02/2019 07:10:55 72.81, 63.89 55.21 08/02/2019 07:11:45 72.83, 63.97 55.21 3.30 50




NCC Satellite Simultaneous Nadir Overpasses (SNOs) Prediction Service
